Regional Weather Roundup
Issued by NWS

Home | Current Version | Previous Version | Graphics & Text | Print | Product List | Glossary On
Versions: 1 2 3 4 5 6 7 8 9 10 11 12 13 14 15 16 17 18 19 20 21 22 23 24 25 26 27 28 29 30 31 32 33 34 35 36 37 38 39 40 41 42 43 44 45 46 47 48 49 50
000
ASUS45 KABQ 250310
RWRNM
NEW MEXICO REGIONAL WEATHER ROUNDUP
NATIONAL WEATHER SERVICE ALBUQUERQUE NM
900 PM MDT FRI MAR 24 2017

NOTE: "FAIR" MEANS FEW OR NO CLOUDS BELOW 12,000 FEET AGL WITH NO
       SIGNIFICANT WEATHER OR OBSTRUCTIONS TO VISION.

      THIS PRODUCT IS RELEASED AS TWO VERSIONS.  ONE VERSION NEAR
      THE TOP OF THE HOUR CONTAINING PRELIMINARY DATA FROM ALBUQUERQUE
      AND OTHER STATIONS.  A FINAL VERSION WITH ADDITIONAL DATA IS
      ISSUED ABOUT 10 MINUTES AFTER THE HOUR.

NMZ501-503-504-510>518-250400-
NORTHWEST PLATEAU/NORTHCENTRAL MOUNTAINS

CITY           SKY/WX    TMP DP  RH WIND       PRES   REMARKS
FARMINGTON     FAIR      52  22  30 W10       30.13R
LOS ALAMOS     FAIR      50  25  38 SW8       30.19R
SANTA FE       FAIR      45  29  53 N8        30.13R
TAOS             N/A     37  27  65 E6        30.18R WCI  33
ANGEL FIRE     FAIR      31  27  83 CALM      30.22R

$$
NMZ402-403-502-505>509-250400-
WESTCENTRAL MOUNTAINS/SOUTHWEST MOUNTAINS

CITY           SKY/WX    TMP DP  RH WIND       PRES   REMARKS
GALLUP         FAIR      43  21  41 W3        30.21R
GRANTS         FAIR      48  23  37 NW15      30.21R
SILVER CITY    FAIR      50  27  41 NW13      30.19R

$$
NMZ407-409-411-412-250400-
SOUTHERN DESERTS

CITY           SKY/WX    TMP DP  RH WIND       PRES   REMARKS
DEMING         FAIR      60  26  27 W10G16    30.13R
LAS CRUCES     FAIR      62  23  22 W18G24    30.11R
HOLLOMAN AFB   FAIR      59  21  23 NE5       30.11R
ALAMOGORDO     FAIR      61  19  20 NE7       30.08R
T OR C         FAIR      62  19  19 NW14      30.10R

$$
NMZ519>523-250400-
CENTRAL VALLEYS/CENTRAL HIGHLANDS

CITY           SKY/WX    TMP DP  RH WIND       PRES   REMARKS
ALBUQUERQUE    FAIR      59  17  19 NW9       30.14R
DOUBLE EAGLE   CLEAR     54  18  24 NW15      30.15R
MORIARTY ARPT  FAIR      45  22  39 SW9       30.16R
CLINES CORNERS FAIR      41  26  55 E5        30.19R
BELEN          FAIR      53  13  20 N10       30.13R
SOCORRO        FAIR      62  23  22 W18       30.11R

$$
NMZ524>526-539-540-250400-
SOUTHCENTRAL MOUNTAINS

CITY           SKY/WX    TMP DP  RH WIND       PRES   REMARKS
RUIDOSO        FAIR      46  23  39 SE12      30.21R

$$
NMZ527>531-250400-
NORTHEAST HIGHLANDS/NORTHEAST PLAINS

CITY           SKY/WX    TMP DP  RH WIND       PRES   REMARKS
LAS VEGAS      FAIR      31  24  75 E7        30.17R WCI  24
RATON          NOT AVBL
CLAYTON        CLOUDY    42  36  79 NW9       30.13R

$$
NMZ532>537-250400-
EASTCENTRAL PLAINS

CITY           SKY/WX    TMP DP  RH WIND       PRES   REMARKS
TUCUMCARI      FAIR      49  30  48 N23       30.09R
CANNON AFB     FAIR      47  31  54 N23G30    30.10R
CLOVIS AIRPORT FAIR      46  28  49 N26       30.10R

$$
NMZ028-029-538-250400-
SOUTHEAST PLAINS

CITY           SKY/WX    TMP DP  RH WIND       PRES   REMARKS
ROSWELL        FAIR      56  28  34 NE9         N/A
ARTESIA        FAIR      59  28  31 NE10      30.10R
CARLSBAD       FAIR      63  27  25 NE14G21   30.06R
HOBBS          FAIR      55  27  33 N16       30.09R


$$




USA.gov is the U.S. government's official web portal to all federal, state and local government web resources and services.